When you browse on this site, cookies collect data to enhance your experience and personalize the content and advertising you see.
Visit our Privacy Policy to learn more. By continuing to use the site, you agree to this use of cookies and data.
  • In Hungary
  • List of Countries
  • For 7 days
  • Water Temperature
  • Weather Map
  • News
  • Weather Widgets
  • user-avatar
    Login

    Hourly Weather Terskiy

    Today, 25 February, Tuesday

    Time Temperature Precipitation Wind Pressure Humidity
    00:00 +3°C° 0 mm 3 mps 738 mmHg 90%
    01:00 +3°C° 0 mm 4 mps 738 mmHg 91%
    02:00 +3°C° 0 mm 4 mps 738 mmHg 91%
    03:00 +3°C° 0 mm 4 mps 738 mmHg 92%
    04:00 +2°C° 0 mm 5 mps 739 mmHg 85%
    05:00 +2°C° 0 mm 6 mps 740 mmHg 77%
    06:00 +3°C° 0 mm 7 mps 742 mmHg 70%
    07:00 +3°C° 0.2 mm 7 mps 742 mmHg 63%
    08:00 +3°C° 0.2 mm 6 mps 743 mmHg 57%
    09:00 +3°C° 0.2 mm 6 mps 744 mmHg 50%
    10:00 +3°C° 0 mm 9 mps 744 mmHg 46%
    11:00 +4°C° 0 mm 13 mps 744 mmHg 42%
    12:00 +6°C° 0 mm 16 mps 745 mmHg 38%
    13:00 +5°C° 0 mm 15 mps 745 mmHg 39%
    14:00 +5°C° 0 mm 15 mps 745 mmHg 40%
    15:00 +5°C° 0 mm 14 mps 745 mmHg 41%
    16:00 +4°C° 0 mm 13 mps 746 mmHg 45%
    17:00 +3°C° 0 mm 11 mps 747 mmHg 50%
    18:00 +2°C° 0 mm 9 mps 748 mmHg 54%
    19:00 +2°C° 0 mm 9 mps 749 mmHg 56%
    20:00 +1°C° 0 mm 9 mps 750 mmHg 59%
    21:00 +1°C° 0 mm 9 mps 751 mmHg 61%
    22:00 0°C° 0 mm 8 mps 751 mmHg 64%
    23:00 +1°C° 0 mm 6 mps 751 mmHg 67%

    Tomorrow, 26 February, Wednesday

    Time Temperature Precipitation Wind Pressure Humidity
    00:00 0°C° 0 mm 5 mps 751 mmHg 70%
    01:00 0°C° 0 mm 5 mps 751 mmHg 74%
    02:00 -1°C° 0 mm 4 mps 751 mmHg 78%
    03:00 0°C° 0 mm 3 mps 751 mmHg 82%
    04:00 0°C° 0 mm 3 mps 751 mmHg 81%
    05:00 -1°C° 0 mm 3 mps 752 mmHg 80%
    06:00 -1°C° 0 mm 3 mps 752 mmHg 79%
    07:00 +1°C° 0 mm 3 mps 752 mmHg 71%
    08:00 +3°C° 0 mm 2 mps 752 mmHg 62%
    09:00 +4°C° 0 mm 2 mps 752 mmHg 54%
    10:00 +6°C° 0 mm 2 mps 751 mmHg 50%
    11:00 +7°C° 0 mm 3 mps 751 mmHg 46%
    12:00 +8°C° 0 mm 3 mps 751 mmHg 43%
    13:00 +8°C° 0 mm 3 mps 750 mmHg 40%
    14:00 +9°C° 0 mm 3 mps 750 mmHg 37%
    15:00 +10°C° 0 mm 4 mps 749 mmHg 34%
    16:00 +8°C° 0 mm 4 mps 749 mmHg 37%
    17:00 +7°C° 0 mm 4 mps 749 mmHg 40%
    18:00 +6°C° 0 mm 4 mps 749 mmHg 43%
    19:00 +5°C° 0 mm 4 mps 749 mmHg 44%
    20:00 +4°C° 0 mm 4 mps 749 mmHg 44%
    21:00 +4°C° 0 mm 4 mps 749 mmHg 45%
    22:00 +3°C° 0 mm 4 mps 748 mmHg 55%
    23:00 +3°C° 0 mm 4 mps 748 mmHg 65%

    Day after tomorrow, 27 February, Thursday

    Time Temperature Precipitation Wind Pressure Humidity
    00:00 +2°C° 0 mm 3 mps 748 mmHg 75%
    01:00 +2°C° 0 mm 3 mps 748 mmHg 76%
    02:00 +2°C° 0 mm 3 mps 747 mmHg 77%
    03:00 +2°C° 0 mm 3 mps 747 mmHg 78%
    04:00 +2°C° 0 mm 3 mps 747 mmHg 78%
    05:00 +2°C° 0 mm 3 mps 746 mmHg 77%
    06:00 +1°C° 0 mm 3 mps 746 mmHg 76%
    07:00 +3°C° 0 mm 3 mps 746 mmHg 71%
    08:00 +4°C° 0 mm 3 mps 745 mmHg 67%
    09:00 +5°C° 0 mm 3 mps 745 mmHg 62%
    10:00 +8°C° 0 mm 3 mps 745 mmHg 54%
    11:00 +11°C° 0 mm 3 mps 745 mmHg 46%
    12:00 +13°C° 0 mm 4 mps 745 mmHg 38%
    13:00 +14°C° 0 mm 3 mps 744 mmHg 36%
    14:00 +16°C° 0 mm 3 mps 744 mmHg 34%
    15:00 +16°C° 0 mm 2 mps 744 mmHg 32%
    16:00 +15°C° 0 mm 2 mps 744 mmHg 36%
    17:00 +14°C° 0 mm 2 mps 744 mmHg 41%
    18:00 +12°C° 0 mm 2 mps 744 mmHg 46%
    19:00 +12°C° 0 mm 2 mps 744 mmHg 50%
    20:00 +10°C° 0 mm 2 mps 744 mmHg 54%
    21:00 +9°C° 0 mm 2 mps 744 mmHg 58%
    22:00 +8°C° 0 mm 2 mps 743 mmHg 61%
    23:00 +8°C° 0 mm 2 mps 743 mmHg 64%

    28 February, Friday

    Time Temperature Precipitation Wind Pressure Humidity
    00:00 +7°C° 0 mm 2 mps 742 mmHg 66%
    01:00 +6°C° 0 mm 2 mps 742 mmHg 68%
    02:00 +6°C° 0 mm 2 mps 742 mmHg 69%
    03:00 +6°C° 0 mm 1 mps 741 mmHg 70%
    04:00 +6°C° 0 mm 1 mps 741 mmHg 72%
    05:00 +6°C° 0 mm 1 mps 740 mmHg 74%
    06:00 +4°C° 0 mm 0 mps 740 mmHg 77%
    07:00 +6°C° 0 mm 1 mps 740 mmHg 74%
    08:00 +7°C° 0 mm 1 mps 740 mmHg 70%
    09:00 +8°C° 0 mm 1 mps 740 mmHg 67%
    10:00 +9°C° 0 mm 3 mps 740 mmHg 62%
    11:00 +10°C° 0 mm 4 mps 740 mmHg 57%
    12:00 +12°C° 0 mm 5 mps 740 mmHg 51%
    13:00 +11°C° 0 mm 7 mps 741 mmHg 52%
    14:00 +11°C° 0 mm 9 mps 741 mmHg 53%
    15:00 +11°C° 0 mm 11 mps 742 mmHg 53%
    16:00 +10°C° 0 mm 9 mps 743 mmHg 52%
    17:00 +10°C° 0 mm 8 mps 744 mmHg 51%
    18:00 +9°C° 0 mm 6 mps 745 mmHg 50%
    19:00 +8°C° 0 mm 5 mps 746 mmHg 54%
    20:00 +7°C° 0 mm 5 mps 747 mmHg 57%
    21:00 +6°C° 0 mm 4 mps 748 mmHg 61%
    22:00 +5°C° 0 mm 3 mps 749 mmHg 62%
    23:00 +5°C° 0 mm 3 mps 749 mmHg 63%

    29 February, Saturday

    Time Temperature Precipitation Wind Pressure Humidity
    00:00 +4°C° 0 mm 3 mps 749 mmHg 64%
    01:00 +5°C° 0 mm 2 mps 749 mmHg 64%
    02:00 +6°C° 0 mm 1 mps 749 mmHg 65%
    03:00 +5°C° 0 mm 1 mps 749 mmHg 65%
    04:00 +5°C° 0 mm 1 mps 749 mmHg 67%
    05:00 +4°C° 0 mm 1 mps 749 mmHg 68%
    06:00 +4°C° 0 mm 1 mps 749 mmHg 69%
    07:00 +4°C° 0 mm 2 mps 748 mmHg 65%
    08:00 +5°C° 0 mm 2 mps 748 mmHg 60%
    09:00 +5°C° 0 mm 3 mps 748 mmHg 56%
    10:00 +6°C° 0 mm 4 mps 747 mmHg 52%
    11:00 +7°C° 0 mm 4 mps 747 mmHg 48%
    12:00 +8°C° 0 mm 5 mps 746 mmHg 44%
    13:00 +8°C° 0 mm 6 mps 745 mmHg 42%
    14:00 +8°C° 0 mm 6 mps 744 mmHg 40%
    15:00 +9°C° 0 mm 6 mps 743 mmHg 38%
    16:00 +8°C° 0 mm 6 mps 743 mmHg 43%
    17:00 +7°C° 0 mm 5 mps 743 mmHg 47%
    18:00 +6°C° 0 mm 5 mps 743 mmHg 52%
    19:00 +5°C° 0 mm 4 mps 743 mmHg 56%
    20:00 +4°C° 0 mm 3 mps 743 mmHg 60%
    21:00 +3°C° 0 mm 3 mps 744 mmHg 64%
    22:00 +4°C° 0 mm 2 mps 744 mmHg 67%
    23:00 +4°C° 0 mm 2 mps 745 mmHg 69%

    1 March, Sunday

    Time Temperature Precipitation Wind Pressure Humidity
    00:00 +5°C° 0 mm 1 mps 746 mmHg 72%
    01:00 +5°C° 0 mm 1 mps 746 mmHg 74%
    02:00 +5°C° 0 mm 1 mps 747 mmHg 76%
    03:00 +5°C° 0 mm 1 mps 747 mmHg 77%
    04:00 +5°C° 0 mm 1 mps 748 mmHg 78%
    05:00 +4°C° 0 mm 2 mps 749 mmHg 79%
    06:00 +4°C° 0 mm 2 mps 749 mmHg 80%
    07:00 +3°C° 0 mm 4 mps 750 mmHg 75%
    08:00 +2°C° 0 mm 6 mps 750 mmHg 70%
    09:00 +3°C° 0 mm 7 mps 751 mmHg 65%
    10:00 +4°C° 0 mm 8 mps 751 mmHg 58%
    11:00 +5°C° 0 mm 8 mps 751 mmHg 52%
    12:00 +6°C° 0 mm 8 mps 751 mmHg 45%
    13:00 +6°C° 0 mm 8 mps 751 mmHg 41%
    14:00 +6°C° 0 mm 8 mps 751 mmHg 36%
    15:00 +7°C° 0 mm 8 mps 751 mmHg 32%
    16:00 +6°C° 0 mm 7 mps 751 mmHg 35%
    17:00 +6°C° 0 mm 5 mps 751 mmHg 39%
    18:00 +5°C° 0 mm 3 mps 752 mmHg 42%
    19:00 +4°C° 0 mm 3 mps 752 mmHg 45%
    20:00 +4°C° 0 mm 3 mps 753 mmHg 49%
    21:00 +3°C° 0 mm 3 mps 753 mmHg 53%
    22:00 +2°C° 0 mm 3 mps 753 mmHg 56%
    23:00 +2°C° 0 mm 3 mps 752 mmHg 58%
    Show more